| time (UTC) | temp F | wind direction | speed MPH | gust MPH | rain 1hr in | rain 24hr in | rain mn in | humidity % | barometer mb |
| 20260504192009 | 73 | 263 | 2.0 | 13.0 | 0.00 | 0.00 | 0.00 | 55 | 1016.9 |
| 20260504191509 | 73 | 263 | 3.0 | 14.0 | 0.00 | 0.00 | 0.00 | 57 | 1017.0 |
| 20260504190509 | 72 | 146 | 5.0 | 11.0 | 0.00 | 0.00 | 0.00 | 56 | 1017.0 |
| 20260504190009 | 72 | 243 | 4.0 | 18.0 | 0.00 | 0.00 | 0.00 | 57 | 1017.1 |
| 20260504185506 | 72 | 236 | 3.0 | 18.0 | 0.00 | 0.00 | 0.00 | 57 | 1017.0 |
| 20260504185006 | 73 | 84 | 2.0 | 13.0 | 0.00 | 0.00 | 0.00 | 57 | 1017.1 |
| 20260504184505 | 72 | 212 | 5.0 | 13.0 | 0.00 | 0.00 | 0.00 | 57 | 1017.2 |
| 20260504184005 | 72 | 165 | 1.0 | 10.0 | 0.00 | 0.00 | 0.00 | 59 | 1017.2 |
| 20260504183505 | 72 | 117 | 5.0 | 16.0 | 0.00 | 0.00 | 0.00 | 54 | 1017.2 |
| 20260504183008 | 72 | 256 | 5.0 | 16.0 | 0.00 | 0.00 | 0.00 | 55 | 1017.3 |
| 20260504182503 | 72 | 233 | 3.0 | 12.0 | 0.00 | 0.00 | 0.00 | 56 | 1017.4 |
| 20260504182003 | 72 | 238 | 3.0 | 14.0 | 0.00 | 0.00 | 0.00 | 53 | 1017.4 |
| 20260504181504 | 72 | 160 | 4.0 | 14.0 | 0.00 | 0.00 | 0.00 | 53 | 1017.4 |
| 20260504180502 | 72 | 271 | 2.0 | 11.0 | 0.00 | 0.00 | 0.00 | 55 | 1017.4 |
| 20260504180000 | 72 | 90 | 3.0 | 11.0 | 0.00 | 0.00 | 0.00 | 54 | 1017.4 |
| 20260504175600 | 72 | 251 | 3.0 | 10.0 | 0.00 | 0.00 | 0.00 | 54 | 1017.5 |
| 20260504175100 | 72 | 288 | 3.0 | 17.0 | 0.00 | 0.00 | 0.00 | 55 | 1017.5 |
| 20260504174559 | 72 | 163 | 4.0 | 17.0 | 0.00 | 0.00 | 0.00 | 54 | 1017.4 |
| 20260504174059 | 73 | 232 | 1.0 | 11.0 | 0.00 | 0.00 | 0.00 | 55 | 1017.5 |
| 20260504173603 | 72 | 165 | 3.0 | 14.0 | 0.00 | 0.00 | 0.00 | 56 | 1017.5 |
| 20260504173059 | 72 | 210 | 4.0 | 9.0 | 0.00 | 0.00 | 0.00 | 55 | 1017.6 |
| 20260504172558 | 73 | 147 | 2.0 | 7.0 | 0.00 | 0.00 | 0.00 | 56 | 1017.5 |
| 20260504172057 | 72 | 237 | 2.0 | 10.0 | 0.00 | 0.00 | 0.00 | 57 | 1017.5 |
| 20260504171557 | 72 | 271 | 3.0 | 0.0 | 0.00 | 0.00 | 0.00 | 58 | 1017.6 |
| 20260504171159 | 72 | 120 | 1.0 | 9.0 | 0.00 | 0.00 | 0.00 | 62 | 1017.6 |
| 20260504170558 | 72 | 340 | 2.0 | 12.0 | 0.00 | 0.00 | 0.00 | 59 | 1017.6 |
| 20260504151148 | 71 | 282 | 5.0 | 12.0 | 0.00 | 0.00 | 0.00 | 53 | 1018.2 |
| 20260504150549 | 71 | 96 | 2.0 | 5.0 | 0.00 | 0.00 | 0.00 | 53 | 1018.2 |
| 20260504141142 | 69 | 246 | 3.0 | 7.0 | 0.00 | 0.00 | 0.00 | 65 | 1018.3 |
| 20260504140543 | 69 | 272 | 3.0 | 7.0 | 0.00 | 0.00 | 0.00 | 66 | 1018.2 |
| 20260504130531 | 65 | 247 | 1.0 | 4.0 | 0.00 | 0.00 | 0.00 | 78 | 1018.5 |
| 20260504110504 | 44 | 16 | 0.0 | 0.0 | 0.00 | 0.02 | 0.00 | 99 | 1018.8 |
| 20260504100600 | 42 | 16 | 0.0 | 0.0 | 0.00 | 0.02 | 0.00 | 98 | 1018.5 |
| 20260504081553 | 43 | 16 | 0.0 | 0.0 | 0.00 | 0.02 | 0.00 | 98 | 1018.7 |
| 20260504081052 | 43 | 16 | 0.0 | 0.0 | 0.00 | 0.02 | 0.00 | 98 | 1018.7 |
| 20260504080552 | 43 | 16 | 0.0 | 0.0 | 0.00 | 0.02 | 0.00 | 98 | 1018.7 |
| 20260504050538 | 45 | 16 | 0.0 | 0.0 | 0.00 | 0.02 | 0.00 | 98 | 1018.6 |
| 20260504045537 | 45 | 16 | 0.0 | 0.0 | 0.00 | 0.02 | 0.00 | 98 | 1018.6 |
| 20260504045036 | 44 | 15 | 0.0 | 0.0 | 0.00 | 0.02 | 0.00 | 97 | 1018.7 |
| 20260504044536 | 44 | 16 | 0.0 | 0.0 | 0.00 | 0.02 | 0.00 | 97 | 1018.7 |
| 20260504044036 | 44 | 16 | 0.0 | 0.0 | 0.00 | 0.02 | 0.00 | 97 | 1018.7 |
| 20260504043537 | 44 | 16 | 0.0 | 0.0 | 0.00 | 0.02 | 0.00 | 97 | 1018.7 |
| 20260504043034 | 43 | 16 | 0.0 | 0.0 | 0.00 | 0.02 | 0.00 | 97 | 1018.7 |
| 20260504042536 | 44 | 16 | 0.0 | 0.0 | 0.00 | 0.02 | 0.00 | 97 | 1018.8 |
| 20260504042032 | 44 | 16 | 0.0 | 0.0 | 0.00 | 0.02 | 0.00 | 97 | 1018.8 |
| 20260504041535 | 44 | 16 | 0.0 | 0.0 | 0.00 | 0.02 | 0.00 | 97 | 1018.8 |
| 20260504041032 | 44 | 16 | 0.0 | 0.0 | 0.00 | 0.02 | 0.00 | 97 | 1018.8 |
| 20260504040532 | 44 | 16 | 0.0 | 0.0 | 0.00 | 0.02 | 0.00 | 97 | 1018.8 |
| 20260504040031 | 44 | 15 | 0.0 | 0.0 | 0.00 | 0.02 | 0.00 | 97 | 1018.8 |
| 20260504035530 | 44 | 16 | 0.0 | 0.0 | 0.00 | 0.02 | 0.02 | 97 | 1018.8 |
| 20260504035032 | 44 | 16 | 0.0 | 0.0 | 0.00 | 0.02 | 0.02 | 97 | 1018.8 |
| 20260504034529 | 45 | 15 | 0.0 | 0.0 | 0.00 | 0.02 | 0.02 | 97 | 1018.7 |
| 20260504034032 | 45 | 16 | 0.0 | 0.0 | 0.00 | 0.02 | 0.02 | 97 | 1018.7 |
| 20260504033529 | 45 | 16 | 0.0 | 0.0 | 0.00 | 0.02 | 0.02 | 97 | 1018.7 |
| 20260504033029 | 45 | 16 | 0.0 | 0.0 | 0.00 | 0.02 | 0.02 | 96 | 1018.7 |
| 20260504032529 | 45 | 16 | 0.0 | 0.0 | 0.00 | 0.02 | 0.02 | 97 | 1018.8 |
| 20260504032029 | 45 | 16 | 0.0 | 0.0 | 0.00 | 0.02 | 0.02 | 97 | 1018.7 |
| 20260504031529 | 45 | 16 | 0.0 | 0.0 | 0.00 | 0.02 | 0.02 | 97 | 1018.8 |
| 20260504031029 | 44 | 16 | 0.0 | 0.0 | 0.00 | 0.02 | 0.02 | 96 | 1018.7 |
| 20260504030527 | 45 | 16 | 0.0 | 0.0 | 0.00 | 0.02 | 0.02 | 96 | 1018.7 |
| 20260504030027 | 45 | 16 | 0.0 | 0.0 | 0.00 | 0.02 | 0.02 | 96 | 1018.7 |
| 20260504025527 | 45 | 16 | 0.0 | 0.0 | 0.00 | 0.02 | 0.02 | 96 | 1018.7 |
| 20260504025027 | 46 | 16 | 0.0 | 0.0 | 0.00 | 0.02 | 0.02 | 96 | 1018.7 |
| 20260504024527 | 46 | 16 | 0.0 | 0.0 | 0.00 | 0.02 | 0.02 | 96 | 1018.7 |
| 20260504024027 | 46 | 16 | 0.0 | 0.0 | 0.00 | 0.02 | 0.02 | 96 | 1018.6 |
| 20260504023526 | 46 | 16 | 0.0 | 0.0 | 0.00 | 0.02 | 0.02 | 96 | 1018.6 |
| 20260504023027 | 46 | 16 | 0.0 | 0.0 | 0.00 | 0.02 | 0.02 | 95 | 1018.5 |
| 20260504022528 | 46 | 16 | 0.0 | 0.0 | 0.00 | 0.02 | 0.02 | 95 | 1018.6 |
| 20260504022026 | 46 | 16 | 0.0 | 0.0 | 0.00 | 0.02 | 0.02 | 95 | 1018.6 |
| 20260504021525 | 47 | 16 | 0.0 | 0.0 | 0.00 | 0.02 | 0.02 | 95 | 1018.5 |
| 20260504021025 | 47 | 16 | 0.0 | 0.0 | 0.00 | 0.02 | 0.02 | 95 | 1018.5 |
| 20260504020526 | 47 | 16 | 0.0 | 0.0 | 0.00 | 0.02 | 0.02 | 95 | 1018.5 |
| 20260504020026 | 47 | 16 | 0.0 | 0.0 | 0.00 | 0.02 | 0.02 | 95 | 1018.5 |
| 20260504015526 | 47 | 16 | 0.0 | 0.0 | 0.00 | 0.02 | 0.02 | 95 | 1018.4 |
| 20260504015026 | 47 | 16 | 0.0 | 0.0 | 0.00 | 0.02 | 0.02 | 95 | 1018.3 |
| 20260504014528 | 47 | 16 | 0.0 | 0.0 | 0.00 | 0.02 | 0.02 | 95 | 1018.3 |
| 20260504014026 | 47 | 16 | 0.0 | 0.0 | 0.00 | 0.02 | 0.02 | 95 | 1018.2 |
| 20260504013526 | 47 | 16 | 0.0 | 0.0 | 0.00 | 0.02 | 0.02 | 94 | 1018.1 |
| 20260504013026 | 47 | 16 | 0.0 | 0.0 | 0.00 | 0.02 | 0.02 | 93 | 1018.0 |
| 20260504012526 | 47 | 16 | 0.0 | 0.0 | 0.00 | 0.02 | 0.02 | 93 | 1017.9 |
| 20260504012029 | 47 | 16 | 0.0 | 0.0 | 0.00 | 0.02 | 0.02 | 93 | 1017.8 |
| 20260504011526 | 48 | 16 | 0.0 | 0.0 | 0.00 | 0.02 | 0.02 | 93 | 1017.7 |
| 20260504011025 | 48 | 16 | 0.0 | 0.0 | 0.00 | 0.02 | 0.02 | 92 | 1017.6 |
| 20260504010525 | 48 | 16 | 0.0 | 0.0 | 0.00 | 0.02 | 0.02 | 91 | 1017.6 |
| 20260504010025 | 48 | 15 | 0.0 | 0.0 | 0.00 | 0.02 | 0.02 | 91 | 1017.6 |
| 20260504005525 | 48 | 16 | 0.0 | 0.0 | 0.00 | 0.03 | 0.02 | 90 | 1017.5 |
| 20260504005025 | 48 | 16 | 0.0 | 0.0 | 0.00 | 0.03 | 0.02 | 90 | 1017.4 |
| 20260504004525 | 49 | 16 | 0.0 | 0.0 | 0.00 | 0.03 | 0.02 | 90 | 1017.3 |
| 20260504004024 | 49 | 16 | 0.0 | 0.0 | 0.00 | 0.03 | 0.02 | 89 | 1017.3 |
| 20260504003524 | 49 | 16 | 0.0 | 0.0 | 0.00 | 0.03 | 0.02 | 88 | 1017.2 |
| 20260504003029 | 49 | 16 | 0.0 | 0.0 | 0.00 | 0.03 | 0.02 | 87 | 1017.1 |
| 20260504002525 | 50 | 16 | 0.0 | 0.0 | 0.00 | 0.03 | 0.02 | 86 | 1017.1 |
| 20260504002025 | 50 | 16 | 0.0 | 0.0 | 0.00 | 0.03 | 0.02 | 86 | 1017.0 |
| 20260504001526 | 51 | 16 | 0.0 | 0.0 | 0.00 | 0.03 | 0.02 | 85 | 1016.9 |
| 20260504001025 | 52 | 16 | 0.0 | 0.0 | 0.00 | 0.03 | 0.02 | 81 | 1016.9 |
| 20260504000524 | 52 | 15 | 0.0 | 0.0 | 0.00 | 0.03 | 0.02 | 81 | 1016.9 |
| 20260504000023 | 52 | 16 | 0.0 | 0.0 | 0.00 | 0.03 | 0.02 | 80 | 1016.8 |
| 20260503235527 | 53 | 16 | 0.0 | 0.0 | 0.00 | 0.05 | 0.02 | 79 | 1016.8 |
| 20260503235023 | 54 | 16 | 0.0 | 0.0 | 0.00 | 0.05 | 0.02 | 79 | 1016.8 |
| 20260503234525 | 54 | 16 | 0.0 | 0.0 | 0.00 | 0.05 | 0.02 | 78 | 1016.7 |
| 20260503234023 | 55 | 16 | 0.0 | 0.0 | 0.00 | 0.05 | 0.02 | 78 | 1016.8 |
| 20260503233524 | 56 | 16 | 0.0 | 0.0 | 0.00 | 0.05 | 0.02 | 77 | 1016.6 |
| 20260503233034 | 57 | 16 | 0.0 | 0.0 | 0.00 | 0.05 | 0.02 | 75 | 1016.6 |
| 20260503232523 | 58 | 16 | 0.0 | 0.0 | 0.00 | 0.05 | 0.02 | 73 | 1016.7 |
| 20260503232022 | 59 | 15 | 0.0 | 0.0 | 0.00 | 0.05 | 0.02 | 71 | 1016.7 |
| 20260503231523 | 60 | 16 | 0.0 | 0.0 | 0.00 | 0.05 | 0.02 | 70 | 1016.6 |
| 20260503231025 | 63 | 16 | 0.0 | 0.0 | 0.00 | 0.05 | 0.02 | 63 | 1016.6 |
| 20260503230528 | 63 | 16 | 0.0 | 0.0 | 0.00 | 0.05 | 0.02 | 63 | 1016.6 |
| 20260503230024 | 64 | 16 | 0.0 | 1.0 | 0.00 | 0.05 | 0.02 | 60 | 1016.5 |
| 20260503225523 | 64 | 15 | 0.0 | 0.0 | 0.00 | 0.09 | 0.02 | 59 | 1016.6 |
| 20260503225024 | 64 | 16 | 0.0 | 1.0 | 0.00 | 0.09 | 0.02 | 56 | 1016.6 |
| 20260503224524 | 65 | 16 | 0.0 | 1.0 | 0.00 | 0.09 | 0.02 | 48 | 1016.5 |
| 20260503224024 | 64 | 16 | 0.0 | 3.0 | 0.00 | 0.09 | 0.02 | 46 | 1016.5 |
| 20260503223525 | 64 | 16 | 0.0 | 4.0 | 0.00 | 0.09 | 0.02 | 46 | 1016.4 |
| 20260503223022 | 65 | 330 | 0.0 | 2.0 | 0.00 | 0.09 | 0.02 | 50 | 1016.4 |
| 20260503222523 | 65 | 330 | 0.0 | 3.0 | 0.00 | 0.09 | 0.02 | 46 | 1016.4 |
| 20260503222022 | 65 | 323 | 0.0 | 4.0 | 0.00 | 0.09 | 0.02 | 47 | 1016.4 |
| 20260503221527 | 65 | 67 | 1.0 | 4.0 | 0.00 | 0.09 | 0.02 | 46 | 1016.4 |
| 20260503221022 | 65 | 68 | 0.0 | 5.0 | 0.00 | 0.09 | 0.02 | 47 | 1016.3 |
| 20260503220520 | 65 | 68 | 0.0 | 5.0 | 0.00 | 0.09 | 0.02 | 47 | 1016.3 |
| 20260503220019 | 65 | 70 | 2.0 | 5.0 | 0.00 | 0.09 | 0.02 | 44 | 1016.3 |
| 20260503215519 | 66 | 356 | 0.0 | 3.0 | 0.00 | 0.12 | 0.02 | 42 | 1016.4 |
| 20260503215021 | 66 | 229 | 0.0 | 3.0 | 0.00 | 0.12 | 0.02 | 43 | 1016.3 |
| 20260503214519 | 65 | 15 | 1.0 | 7.0 | 0.00 | 0.12 | 0.02 | 43 | 1016.2 |
| 20260503214019 | 65 | 43 | 2.0 | 11.0 | 0.00 | 0.12 | 0.02 | 44 | 1016.2 |
| 20260503213519 | 65 | 20 | 4.0 | 11.0 | 0.00 | 0.12 | 0.02 | 44 | 1016.2 |
| 20260503213022 | 65 | 44 | 3.0 | 11.0 | 0.00 | 0.12 | 0.02 | 47 | 1016.1 |
| 20260503212519 | 66 | 337 | 0.0 | 5.0 | 0.00 | 0.12 | 0.02 | 42 | 1016.2 |
| 20260503212018 | 66 | 16 | 2.0 | 6.0 | 0.00 | 0.12 | 0.02 | 43 | 1016.2 |
| 20260503211518 | 66 | 248 | 1.0 | 6.0 | 0.00 | 0.12 | 0.02 | 42 | 1016.2 |
| 20260503211020 | 65 | 77 | 3.0 | 8.0 | 0.00 | 0.12 | 0.02 | 44 | 1016.3 |
| 20260503210521 | 65 | 77 | 4.0 | 8.0 | 0.00 | 0.12 | 0.02 | 41 | 1016.3 |
| 20260503210018 | 66 | 25 | 1.0 | 5.0 | 0.00 | 0.12 | 0.02 | 43 | 1016.4 |
| 20260503205517 | 66 | 254 | 0.0 | 7.0 | 0.00 | 0.15 | 0.02 | 44 | 1016.5 |
| 20260503205017 | 66 | 283 | 1.0 | 7.0 | 0.00 | 0.15 | 0.02 | 47 | 1016.5 |
| 20260503204520 | 66 | 27 | 2.0 | 7.0 | 0.00 | 0.15 | 0.02 | 44 | 1016.5 |
| 20260503204017 | 66 | 350 | 1.0 | 5.0 | 0.00 | 0.15 | 0.02 | 45 | 1016.5 |
| 20260503203516 | 65 | 38 | 2.0 | 11.0 | 0.00 | 0.15 | 0.02 | 41 | 1016.4 |
| 20260503203017 | 65 | 23 | 3.0 | 11.0 | 0.00 | 0.15 | 0.02 | 44 | 1016.4 |
| 20260503202516 | 65 | 26 | 1.0 | 8.0 | 0.00 | 0.15 | 0.02 | 44 | 1016.5 |
| 20260503202016 | 65 | 130 | 3.0 | 9.0 | 0.00 | 0.15 | 0.02 | 41 | 1016.5 |
| 20260503201516 | 65 | 37 | 3.0 | 9.0 | 0.00 | 0.15 | 0.02 | 42 | 1016.6 |
| 20260503201016 | 66 | 9 | 2.0 | 6.0 | 0.00 | 0.15 | 0.02 | 43 | 1016.5 |
| 20260503200519 | 66 | 7 | 2.0 | 6.0 | 0.00 | 0.15 | 0.02 | 41 | 1016.5 |
| 20260503200014 | 66 | 259 | 2.0 | 8.0 | 0.00 | 0.15 | 0.02 | 46 | 1016.5 |
| 20260503195513 | 66 | 359 | 3.0 | 11.0 | 0.00 | 0.25 | 0.02 | 43 | 1016.5 |
| 20260503195018 | 65 | 186 | 1.0 | 11.0 | 0.00 | 0.25 | 0.02 | 46 | 1016.5 |
| 20260503194513 | 65 | 134 | 3.0 | 10.0 | 0.00 | 0.25 | 0.02 | 45 | 1016.6 |
| 20260503194014 | 65 | 242 | 3.0 | 10.0 | 0.00 | 0.25 | 0.02 | 44 | 1016.7 |
| 20260503193516 | 65 | 240 | 2.0 | 10.0 | 0.00 | 0.25 | 0.02 | 43 | 1016.7 |
| 20260503193012 | 66 | 43 | 1.0 | 6.0 | 0.00 | 0.25 | 0.02 | 46 | 1016.7 |
| 20260503192511 | 65 | 243 | 1.0 | 9.0 | 0.00 | 0.25 | 0.02 | 47 | 1016.8 |